Culdrose, United Kingdom

2:02 AM BST on September 23, 2017 (GMT +0100)
Culdrose Navy

Weather History for EGDR - October, 2011

Change the Weather History Date:

Saturday, October 1, 2011

  Actual Average Record
Temperature  
Mean Temperature 64 °F -  
Max Temperature 73 °F 56 °F 73 °F (2011)
Min Temperature 55 °F 48 °F 46 °F (2000)
Degree Days  
Heating Degree Days 1    
Growing Degree Days 14 (Base 50)    
Moisture  
Dew Point 58 °F    
Average Humidity 85    
Maximum Humidity 100    
Minimum Humidity 54    
Precipitation  
Precipitation 0.00 in - - ()
Sea Level Pressure  
Sea Level Pressure 30.16 in    
Wind  
Wind Speed 8 mph ()    
Max Wind Speed 16 mph    
Max Gust Speed -    
Visibility 4.0 miles    
Events      
Averages and records for this station are not official NWS values.
T = Trace of Precipitation, MM = Missing Value Source: Averaged Metar Reports

Daily Weather History Graph

Daily Weather History Graph

Search for Another Location

Airport or City:

Trip Planner

Search our weather history database for the weather conditions in past years. The results will help you decide how hot, cold, wet, or windy it might be!

Date:

Astronomy

Oct. 01, 2011 Rise Set
Actual Time 7:20 AM BST 7:00 PM BST
Civil Twilight 6:48 AM BST 7:32 PM BST
Nautical Twilight 6:10 AM BST 8:10 PM BST
Astronomical Twilight 5:31 AM BST 8:48 PM BST
Moon 12:45 PM BST (10/1) 9:08 PM BST (10/1)
Length of Visible Light 12h 44m
Length of Day
11h 39m
Waxing Crescent, 22% of the Moon is Illuminated
Oct 1
Waxing Crescent
Oct 4
First Quarter
Oct 12
Full
Oct 20
Last Quarter
Oct 26
New

Hourly Weather History & Observations

Time (BST) Temp. Dew Point Humidity Pressure Visibility Wind Dir Wind Speed Gust Speed Precip Events Conditions
12:50 AM 62 °F 60 °F 90% 30.14 in 2 mi SSE 8.1 mph - -   Haze
12:50 AM 62.6 °F 60.8 °F 94% 30.12 in 2.5 mi SSE 8.1 mph - N/A   Haze
1:50 AM 62.6 °F 59.0 °F 88% 30.12 in 2.5 mi SSE 8.1 mph - N/A   Haze
2:50 AM 60.8 °F 59.0 °F 94% 30.12 in 2.5 mi SE 8.1 mph - N/A   Haze
3:50 AM 61 °F 58 °F 85% 30.12 in 2 mi SSE 6.9 mph - -   Haze
3:50 AM 60.8 °F 57.2 °F 88% 30.09 in 2.5 mi SSE 6.9 mph - N/A   Haze
4:50 AM 62.6 °F 57.2 °F 82% 30.12 in 3.7 mi SE 9.2 mph - N/A   Haze
5:50 AM 57.2 °F 57.2 °F 100% 30.12 in 3.7 mi East 9.2 mph - N/A   Scattered Clouds
6:50 AM 56 °F 55 °F 95% 30.14 in 4 mi ESE 9.2 mph - -   Mist
6:50 AM 55.4 °F 55.4 °F 100% 30.12 in 3.7 mi ESE 9.2 mph - N/A   Scattered Clouds
7:50 AM 57.2 °F 55.4 °F 94% 30.15 in 4.3 mi East 5.8 mph - N/A   Haze
8:50 AM 59.0 °F 57.2 °F 94% 30.15 in 4.3 mi SE 5.8 mph - N/A   Haze
9:50 AM 65 °F 59 °F 74% 30.18 in 4 mi SE 4.6 mph - -   Haze
9:50 AM 66.2 °F 59.0 °F 78% 30.18 in 4.3 mi SE 4.6 mph - N/A   Haze
10:50 AM 68.0 °F 59.0 °F 73% 30.18 in 4.3 mi South 6.9 mph - N/A   Haze
11:50 AM 69.8 °F 57.2 °F 64% 30.18 in 4.3 mi SSW 8.1 mph - N/A   Haze
12:50 PM 72 °F 59 °F 54% 30.18 in 4 mi SSW 9.2 mph - -   Haze
12:50 PM 71.6 °F 59.0 °F 64% 30.18 in 4.3 mi SSW 9.2 mph - N/A   Haze
1:50 PM 73.4 °F 60.8 °F 65% 30.18 in 6.2 mi SSE 6.9 mph - N/A   Haze
3:50 PM 72 °F 60 °F 57% 30.18 in 7 mi SE 8.1 mph - -   Haze
4:50 PM 68.0 °F 60.8 °F 78% 30.18 in 6.2 mi ESE 11.5 mph - N/A   Haze
6:50 PM 61 °F 59 °F 91% 30.20 in 7 mi East 11.5 mph - -   Scattered Clouds
6:50 PM 60.8 °F 59.0 °F 94% 30.18 in - East 11.5 mph - N/A   Clear
8:50 PM 59.0 °F 57.2 °F 94% 30.21 in 4.3 mi East 11.5 mph - N/A   Mostly Cloudy
9:50 PM 58 °F 57 °F 97% 30.23 in 4 mi East 16.1 mph - -   Mist
9:50 PM 59.0 °F 57.2 °F 94% 30.21 in 4.3 mi East 16.1 mph - N/A   Mostly Cloudy
10:50 PM 59.0 °F 57.2 °F 94% 30.21 in 3.7 mi East 12.7 mph - N/A   Mostly Cloudy
11:50 PM 57.2 °F 55.4 °F 94% 30.21 in 3.7 mi East 9.2 mph - N/A   Mostly Cloudy